Location: Nitra
(0.0000°N, 18.0833°E)
Time: 19:34:15
(UTC+02:00)

A-11 Canister half - Pass Details

Date: 05 April 2023
Orbit: 1526 x 1682 km, 47.3° (Epoch: 08 June)

Event Time Altitude Azimuth Distance (km) Brightness Sun altitude
Rises 08:16:36 0° 182° (S) 4,795 11.5 21.4°
Reaches altitude 10° 08:24:45 10° 141° (SE) 3,861 11.6 23.4°
Maximum altitude 08:25:36 10° 136° (SE) 3,856 11.7 23.6°
Drops below altitude 10° 08:26:27 10° 131° (SE) 3,871 11.8 23.8°
Sets 08:34:39 0° 90° (E) 4,898 13.0 25.9°
